Regional Weather Roundup
Issued by NWS Green Bay, WI

Home | Current Version | Previous Version | Text Only | Print | Product List | Glossary On
Versions: 1 2 3 4 5 6 7 8 9 10 11 12 13 14 15 16 17 18 19 20 21 22 23 24 25 26 27 28 29 30 31 32 33 34 35 36 37 38 39 40 41 42 43 44 45 46 47 48 49 50
000
ASUS43 KGRB 231010
RWRGRB

NORTH-CENTRAL AND NORTHEAST WISCONSIN REGIONAL WEATHER ROUNDUP
NATIONAL WEATHER SERVICE GREEN BAY WI
500 AM CDT WED JUL 23 2014

WIZ005-009-010>012-018-019-231100-
NORTH CENTRAL WISCONSIN

CITY           SKY/WX    TMP DP  RH WIND       PRES   REMARKS
IRONWOOD       NOT AVBL
MANITOWISH WTR FOG       49  49 100 CALM      30.20S VSB 1
ARBOR VITAE    FOG       52  49  90 CALM      30.20R VSB 1
EAGLE RIVER    CLEAR     51  51 100 N3        30.20R
LAND O LAKES   MOCLDY    51  51 100 CALM      30.21R
RHINELANDER    CLEAR     52  51  97 CALM      30.20R FOG
PHILLIPS       PTCLDY    51  51  99 CALM      30.19R
ANTIGO         FOG       50  50 100 CALM      30.19R VSB 3/4
TOMAHAWK       FOG       48  47  97 CALM      30.20R VSB 1/4
MERRILL        FOG       49  49 100 CALM      30.19R VSB 1/4
$$

WIZ013-073-231100-
NORTHEAST WISCONSIN

CITY           SKY/WX    TMP DP  RH WIND       PRES   REMARKS
IRON MOUNTAIN  PTCLDY    55  52  89 NW6       30.16R
MARINETTE      CLEAR     55  52  88 N7        30.13S
OCONTO         CLEAR     56  56  99 N3        30.15R
$$

WIZ017-030-035>037-045-231100-
CENTRAL WISCONSIN

CITY           SKY/WX    TMP DP  RH WIND       PRES   REMARKS
MEDFORD        FOG       51  51  99 CALM      30.19R VSB 1
WAUSAU         CLEAR     57  56  96 CALM      30.17R
MOSINEE        CLEAR     55  55 100 N5        30.19R
MARSHFIELD     CLEAR     58  56  93 CALM      30.18R
WISC RAPIDS    FOG       57  55  93 CALM      30.19R VSB 3/4
STEVENS POINT    N/A     52  52  99 CALM      30.18R FOG
WAUPACA        CLEAR     58  56  94 CALM      30.17R
SHAWANO        CLEAR     58  55  88 NW3       30.16R
CLINTONVILLE   CLEAR     55  54  94 N3        30.16R
$$

WIZ038-039-048-051-231100-
FOX VALLEY

CITY           SKY/WX    TMP DP  RH WIND       PRES   REMARKS
NWS GREEN BAY  CLEAR     58  56  93 N7        30.14R
APPLETON       CLEAR     55  54  94 NW6       30.16R
OSHKOSH        CLEAR     60  56  86 N7        30.14R
FOND DU LAC    PTCLDY    63  54  72 NE9       30.14S
$$

WIZ022-050-052-231100-
EAST CENTRAL WISCONSIN

CITY           SKY/WX    TMP DP  RH WIND       PRES   REMARKS
STURGEON BAY   PTCLDY    61  54  77 N12       30.13S
MANITOWOC      PTCLDY    59  55  87 N6        30.13S
SHEBOYGAN      CLEAR     57  54  89 NW5       30.13R
$$

LMZ563-521-522-541>543-231100-
LAKESHORE

STATION/POSITION TIME  TEMP    WIND        PRES    VSBY  WAVE
                       AIR SEA DIR/SP/G                  HT/PER
                 (UTC) (F)     (DEG/KT/KT) (MB)    (MI)  (FT/S)
SHEBOYGAN LKSHOR 1000   62     330/  8/  9 1020.0R
KEWAUNEE LKSHORE 1000   59     320/  3/  5 1020.5F
NORTHPORT PIER   1000   62     350/ 16/ 20 1019.6S
N MID LAKE BUOY  1000   55 52  320/ 14/ 17 1018.4R         2/ 4
CHAMBERS ISLAND  1000   61     320/ 13/ 15 1020.0S
MENOMINEE LKSHOR 1000   56     330/ 11/ 13 1021.0R
$$



USA.gov is the U.S. government's official web portal to all federal, state and local government web resources and services.